Regional Weather Roundup
Issued by NWS Wakefield, VA

Home | Current Version | Previous Version | Text Only | Print | Product List | Glossary Off
Versions: 1 2 3 4 5 6 7 8 9 10 11 12 13 14 15 16 17 18 19 20 21 22 23 24 25 26 27 28 29 30 31 32 33 34 35 36 37 38 39 40 41 42 43 44 45 46 47 48 49 50

000
ASUS41 KAKQ 161510
RWRAKQ

REGIONAL WEATHER ROUNDUP
NATIONAL WEATHER SERVICE WAKEFIELD VA
1100 AM EDT TUE SEP 16 2014

Note: "fair" indicates few or no clouds below 12,000 feet with no
significant weather and/or obstructions to visibility. * = Denotes
station may not report precipitation (e.g., rain,snow,etc.),
thunder or fog.

VAZ042-051-052>054-056-161600-
NORTHERN VIRGINIA

CITY           SKY/WX    TMP DP  RH WIND       PRES   REMARKS
WASH NATIONAL  MOSUNNY   77  55  46 NW15G21   30.04S
DULLES         MOSUNNY   71  54  54 NW16G23   30.05R
FORT BELVOIR   SUNNY     73  55  52 NW13G23   30.03S
QUANTICO       MOSUNNY   75  58  55 N15G23    30.04F
FREDERICKSBRG* SUNNY     76  60  57 NW5       30.03R
STAFFORD*      MOSUNNY   73  60  63 N7        30.08S
WARRENTON      MOSUNNY   75  65  70 NW12      30.04S
CULPEPER*      MOSUNNY   73  61  64 N7        30.05S
MANASSAS*      MOSUNNY   73  57  56 NW20      30.05R
LEESBURG*      MOSUNNY   70  59  68 NW13G22   30.06S
WINCHESTER     PTSUNNY   70  52  52 NW8G18    30.07F
FRONT ROYAL*   SUNNY     70  55  60 NW12G17   30.06F
LURAY*         PTSUNNY   72  55  56 NW6       30.07S
$$

VAZ048-049-060>072-079>083-161600-
CENTRAL AND SOUTH CENTRAL VIRGINIA...AND NORTH CENTRAL NORTH CAROLINA

CITY           SKY/WX    TMP DP  RH WIND       PRES   REMARKS
RICHMOND       MOSUNNY   79  59  50 CALM      30.03S
CHESTERFIELD*  MOSUNNY   77  55  47 CALM      30.05F
PETERSBURG*    MOSUNNY   76  60  57 CALM      30.04F
HANOVER        MOSUNNY   75  62  64 CALM      30.05F
TAPPAHANNOCK*  MOSUNNY   75  56  51 CALM      30.04S
CHARLOTTSVILLE MOSUNNY   74  59  59 VRB3      30.04S
ORANGE*        PTSUNNY   75  59  57 NW3       30.05S
LOUISA*        SUNNY     77  61  57 N3        30.03F
FARMVILLE*     PTSUNNY   75  61  60 SW3       30.03S
CREWE*         PTSUNNY   76  66  72 NW3       30.04F
FORT PICKETT*  MOSUNNY   75  64  67 NW6       30.04F
LUNENBURG*     MOSUNNY   75  64  68 NW3       30.04F
SOUTH HILL*    SUNNY     79  64  61 NW3       30.09F
LAWRENCEVILLE* SUNNY     76  66  70 NW3       30.04F
ROANOKE RAPIDS MOSUNNY   73  64  73 CALM      30.04F
RALEIGH        MOSUNNY   78  62  57 VRB6      30.05F
$$

VAZ088>098-161600-
SOUTHEAST VIRGINIA

CITY           SKY/WX    TMP DP  RH WIND       PRES   REMARKS
NORFOLK        MOSUNNY   74  64  71 CALM      30.02F
VIRGINIA BEACH MOSUNNY   76  67  73 VRB5      30.01F
NORFOLK NAVAL  MOSUNNY   75  65  70 NW5       30.04F
WEST POINT*    NOT AVBL
NEWPORT NEWS   SUNNY     80  63  55 CALM      30.02F
LANGLEY AFB    SUNNY     75  63  65 VRB6      30.01F
FORT EUSTIS    MOSUNNY   73  73 100 NW6       30.01F
WILLIAMSBURG*  SUNNY     79  66  65 CALM      30.03F
HR EXEC AP*    PTSUNNY   73  64  73 NW5       30.05F
FRANKLIN*        N/A     75  64  69 CALM      30.04S
WAKEFIELD      SUNNY     74  64  71 VRB3      30.04S
$$

VAZ020-022-025-037-045-161600-
WEST CENTRAL AND SOUTHWEST VIRGINIA

CITY           SKY/WX    TMP DP  RH WIND       PRES   REMARKS
STAUNTON*      CLOUDY    71  54  54 W7        30.09S
HOT SPRINGS VA CLOUDY    55  53  94 NW3       30.17S
LYNCHBURG      PTSUNNY   71  61  70 VRB5      30.08S
DANVILLE       SUNNY     77  63  61 N5        30.06F
SOUTH BOSTON*  NOT AVBL
MARTINSVILLE   MOSUNNY   77  62  58 CALM      30.09F
ROANOKE        CLOUDY    70  58  65 W7        30.10F
BLACKSBURG     CLOUDY    64  63  94 NW8       30.15R
DUBLIN*        CLOUDY    67  62  82 CALM      30.13S
MARION*        CLOUDY    66  63  89 SW3       30.16S
HILLSVILLE*    CLOUDY    64  61  88 W3        30.15S
RICHLANDS*     CLOUDY    64  62  90 W3        30.15S
WISE*          CLOUDY    64  63  94 NW3       30.16S
ABINGDON*      CLOUDY    69  66  91 W6        30.13F
$$

MDZ021>025-VAZ099-100-161600-
SOUTHERN MARYLAND AND THE DELMARVA PENINSULA

CITY           SKY/WX    TMP DP  RH WIND       PRES   REMARKS
PATUXENT RIVER MOSUNNY   76  56  49 NW14      30.02S
BAY BRIDGE APT   N/A     72  54  53 NW12      30.02S
LEONARDTOWN    SUNNY     73  54  49 NW8       30.04S
DOVER          SUNNY     73  60  65 NW12      29.99S
GEORGETOWN     SUNNY     75  59  57 NW9       30.00S
EASTON         SUNNY     73  59  60 N12       30.05S
CAMBRIDGE      SUNNY     73  57  56 NW12G20   30.00S
SALISBURY        N/A    N/A N/A N/A MISG      30.00S
OCEAN CITY     SUNNY     77  61  57 NW8       29.98F
WALLOPS ISLAND MOSUNNY   76  63  64 NW10      30.00F
ACCOMACK*      MOSUNNY   73  61  64 NW7       30.01F
$$

NCZ012>017-030>032-161600-
EASTERN NORTH CAROLINA

CITY           SKY/WX    TMP DP  RH WIND       PRES   REMARKS
ELIZABETH CITY PTSUNNY   76  68  76 W10       30.03F
AHOSKIE*       SUNNY     74  66  75 N3        30.04F
EDENTON*       PTSUNNY   75  68  78 W6        30.03F
CURRITUCK*     PTSUNNY   76  66  69 W3        30.03F
KILL DEVIL HLS MOSUNNY   76  67  73 W7        30.02S
MANTEO         CLOUDY    76  67  73 NW6       30.03S
CAPE HATTERAS  MOSUNNY   77  69  76 W6        30.04S
TARBORO*       SUNNY     78  67  69 W5        30.04F
GOLDSBORO      CLOUDY    74  73  97 CALM      30.04S
WASHINGTON     PTSUNNY   74  68  83 NW5       30.04F
GREENVILLE     PTSUNNY   77  68  73 N6        30.06F
NEW BERN       CLOUDY    79  69  71 W5        30.05F
WILMINGTON     CLOUDY    79  72  79 NW8       30.04F
$$

VAZ048-161600-
ELSEWHERE

CITY           SKY/WX    TMP DP  RH WIND       PRES   REMARKS
HARRISBURG PA  MOSUNNY   68  55  63 NW8       30.04R
BALTIMORE      MOSUNNY   72  54  53 NW6       30.02S
ANNAPOLIS      SUNNY     72  55  55 NW9       30.02S
ANDREWS AFB    MOSUNNY   73  56  54 NW14G21   30.03S
WILMINGTON DE  SUNNY     71  59  65 N10       30.02S
PHILADELPHIA   MOSUNNY   69  58  67 NW14      30.01S
WILDWOOD NJ*   MOSUNNY   70  63  78 NW9       30.00S
ATLANTIC CITY  PTSUNNY   69  65  86 NW13      29.99S
HENDERSON NC   SUNNY     76  60  57 NW5       30.06S
GREENSBORO     MOSUNNY   78  62  57 VRB5      30.06F
ROCKY MOUNT    SUNNY     78  66  66 NW7       30.04F
FAYETTEVILLE   PTSUNNY   76  69  79 CALM      30.05F
CHARLOTTE      MOSUNNY   77  67  71 CALM      30.07S
$$

VAZ100-161600-
MARINE

STATION/POSITION TIME  TEMP    WIND        PRES    WAVE   SWELL
                       AIR SEA DIR/SP/G            HT/PER HT/PER
                 (UTC) (F)     (DEG/KT/KT) (MB)    (FT/S) (FT/S)
44066 TX TWR #4  1500   68 74  150/  4/  6 1015.5F   2/ 7   2/ 7
CAPE MAY NJ      1400      75                N/A
LEWES DE         1400      72                N/A
15NM E FENWICK I 1500   70 72              1015.1F   2/ 4
OCEAN-CITY-INLET 1400      71                N/A
WACHAPREAGUE VA  1400      72                N/A
THOMAS POINT MD  1500   71 74  300/ 12/ 14 1017.3F
GOOSES REEF MD   1500   72     340/ 12/ 14 1016.7F
COVE POINT MD    1400                      1016.4
SOLOMONS ISLAND  1400      76                N/A
BISHOPS HEAD MD  1400      71                N/A
POTOMAC MD       1500   71     310/  8/ 10 1015.6F
CAMBRIDGE MD     1400      75                N/A
LEWISETTA VA     1400      74                N/A
RAPPAHANNOCK LGT 1400                      1017.1S
STINGRAY PT      1500   71     290/  8/ 10   N/A
YORK RVR RNG VA  1400                      1016.4
YORKTOWN VA      1400      77                N/A
JAMESTOWN VA     1500   69     320/  4/  6   N/A
DOMINION TERM VA 1400                      1017.1
KIPTOPEKE VA     1400      78                N/A
CHES BAY BRIDGE  1400      76                N/A
CAPE HENRY VA    1400                      1015.7
CHESAPEAKE LGHT  1400   73     300/ 14/ 15 1017.6R
WILLOUBY STN VA  1400                      1015.7
S CRANEY ISL VA  1400                      1016.8R
CAPE HENRY BUOY  1500      75                N/A     2/12   2/12
1ST LANDING BUOY 1500   72     310/ 10/ 12 1016.4F
CAPE CHARLES BUO 1500      75                N/A     2/13   2/13
OFFSHORE WE BUOY 1500      74                N/A     2/12   2/12
64NM E OF VA BCH 1500   74 79  260/ 12/ 14 1016.1F   2/ 8   2/ 8
DUCK PIER NC     1400      76                N/A
44100 DUCK FRF   1500      74                N/A     2/ 7   2/13
44056 DUCK FRF   1500                        N/A     2/13   2/13
OREGON INLET NC  1400      74                N/A
HATTERAS NC      1400      77                N/A
DIAMOND SHLS NC  1500   76     320/  4/  4 1017.1F   2/ 8   2/ 8
CAPE LOOKOUT NC  1400   76      60/  4/  4 1017.5R
$$



USA.gov is the U.S. government's official web portal to all federal, state and local government web resources and services.